Tracking 27112 objects as of 26-Mar-2023
HD Live streaming from Space Station
objects crossing your sky now

STARLINK-4581

Track STARLINK-4581 now!
10-day predictions
STARLINK-4581 is classified as:


NORAD ID: 53576
Int'l Code: 2022-101BB
Perigee: 545.9 km
Apogee: 547.6 km
Inclination: 53.2 °
Period: 95.4 minutes
Semi major axis: 6917 km
RCS: Unknown
Launch date: August 19, 2022
Source: United States (US)
Launch site: AIR FORCE EASTERN TEST RANGE (AFETR)
Your satellite tracking list
Your tracking list is empty




NASA's NSSDC Master Catalog

Two Line Element Set (TLE):
1 53576U 22101BB  23085.58334491 -.00057254  00000-0 -36051-2 0  9999
2 53576  53.2142 218.2152 0001216  80.8582 133.7464 15.08870208 33538
Source of the keplerian elements: AFSPC